Tillbaka till svenska Fidonet
English   Information   Debug  
FILM   0/18
FNEWS_PUBLISH   4983
FN_SYSOP   42232
FN_SYSOP_OLD1   71952
FTP_FIDO   0/2
FTSC_PUBLIC   0/13976
FUNNY   0/4886
GENEALOGY.EUR   0/71
GET_INFO   105
GOLDED   0/408
HAM   0/16715
HOLYSMOKE   0/6791
HOT_SITES   0/1
HTMLEDIT   0/71
HUB203   466
HUB_100   264
HUB_400   39
HUMOR   0/29
IC   0/2851
INTERNET   0/424
INTERUSER   0/3
IP_CONNECT   719
JAMNNTPD   0/233
JAMTLAND   0/47
KATTY_KORNER   0/41
LAN   0/16
LINUX-USER   0/19
LINUXHELP   0/1155
LINUX   0/22386
LINUX_BBS   0/957
mail   18.68
mail_fore_ok   249
MENSA   0/341
MODERATOR   0/102
MONTE   0/992
MOSCOW_OKLAHOMA   0/1245
MUFFIN   0/783
MUSIC   0/321
N203_STAT   938
N203_SYSCHAT   313
NET203   321
NET204   69
NET_DEV   0/10
NORD.ADMIN   0/101
NORD.CHAT   0/2572
NORD.FIDONET   189
NORD.HARDWARE   0/28
NORD.KULTUR   0/114
NORD.PROG   0/32
NORD.SOFTWARE   0/88
NORD.TEKNIK   0/58
NORD   0/453
OCCULT_CHAT   0/93
OS2BBS   0/787
OS2DOSBBS   0/580
OS2HW   0/42
OS2INET   0/37
OS2LAN   0/134
OS2PROG   0/36
OS2REXX   0/113
OS2USER-L   207
OS2   0/4831
OSDEBATE   0/18996
PASCAL   0/490
PERL   0/457
PHP   0/45
POINTS   0/405
POLITICS   0/29554
POL_INC   0/14731
PSION   103
R20_ADMIN   1133
R20_AMATORRADIO   0/2
R20_BEST_OF_FIDONET   16
R20_CHAT   0/897
R20_DEPP   0/3
R20_DEV   400
R20_ECHO2   1889
R20_ECHOPRES   0/35
R20_ESTAT   0/719
R20_FIDONETPROG...
...RAM.MYPOINT
  0/2
R20_FIDONETPROGRAM   0/22
R20_FIDONET   0/248
R20_FILEFIND   0/24
R20_FILEFOUND   0/22
R20_HIFI   0/3
R20_INFO2   3782
R20_INTERNET   0/12940
R20_INTRESSE   0/60
R20_INTR_KOM   0/99
R20_KANDIDAT.CHAT   42
R20_KANDIDAT   28
R20_KOM_DEV   112
R20_KONTROLL   0/13360
R20_KORSET   0/18
R20_LOKALTRAFIK   0/24
R20_MODERATOR   0/1852
R20_NC   76
R20_NET200   245
R20_NETWORK.OTH...
...ERNETS
  0/13
R20_OPERATIVSYS...
...TEM.LINUX
  0/44
R20_PROGRAMVAROR   0/1
R20_REC2NEC   534
R20_SFOSM   0/341
R20_SF   0/108
R20_SPRAK.ENGLISH   0/1
R20_SQUISH   107
R20_TEST   2
R20_WORST_OF_FIDONET   20
RAR   0/9
RA_MULTI   106
RA_UTIL   0/162
REGCON.EUR   0/2069
REGCON   0/13
SCIENCE   0/1206
SF   0/239
SHAREWARE_SUPPORT   0/5146
SHAREWRE   0/14
SIMPSONS   0/169
STATS_OLD1   0/2539.065
STATS_OLD2   0/2530
STATS_OLD3   0/2395.095
STATS_OLD4   0/1692.25
SURVIVOR   0/495
SYSOPS_CORNER   0/3
SYSOP   0/84
TAGLINES   0/112
TEAMOS2   0/4530
TECH   0/2617
TEST.444   0/105
TRAPDOOR   0/19
TREK   0/755
TUB   0/290
UFO   0/40
UNIX   0/1316
USA_EURLINK   0/102
USR_MODEMS   0/1
VATICAN   0/2740
VIETNAM_VETS   0/14
VIRUS   0/378
VIRUS_INFO   0/201
VISUAL_BASIC   0/473
WHITEHOUSE   0/5187
WIN2000   0/101
WIN32   0/30
WIN95   0/4291
WIN95_OLD1   0/70272
WINDOWS   0/1517
WWB_SYSOP   0/419
WWB_TECH   0/810
ZCC-PUBLIC   0/1
ZEC   4

 
4DOS   0/134
ABORTION   0/7
ALASKA_CHAT   0/506
ALLFIX_FILE   0/1313
ALLFIX_FILE_OLD1   0/7997
ALT_DOS   0/152
AMATEUR_RADIO   0/1039
AMIGASALE   0/14
AMIGA   0/331
AMIGA_INT   0/1
AMIGA_PROG   0/20
AMIGA_SYSOP   0/26
ANIME   0/15
ARGUS   0/924
ASCII_ART   0/340
ASIAN_LINK   0/651
ASTRONOMY   0/417
AUDIO   0/92
AUTOMOBILE_RACING   0/105
BABYLON5   0/17862
BAG   135
BATPOWER   0/361
BBBS.ENGLISH   0/382
BBSLAW   0/109
BBS_ADS   0/5290
BBS_INTERNET   0/507
BIBLE   0/3563
BINKD   0/1119
BINKLEY   0/215
BLUEWAVE   0/2173
CABLE_MODEMS   0/25
CBM   0/46
CDRECORD   0/66
CDROM   0/20
CLASSIC_COMPUTER   0/378
COMICS   0/15
CONSPRCY   0/899
COOKING   42009
COOKING_OLD1   0/24719
COOKING_OLD2   0/40862
COOKING_OLD3   0/37489
COOKING_OLD4   0/35496
COOKING_OLD5   9370
C_ECHO   0/189
C_PLUSPLUS   0/31
DIRTY_DOZEN   0/201
DOORGAMES   0/2333
DOS_INTERNET   0/196
duplikat   6102
ECHOLIST   0/18295
EC_SUPPORT   0/318
ELECTRONICS   0/359
ELEKTRONIK.GER   1534
ENET.LINGUISTIC   0/13
ENET.POLITICS   0/4
ENET.SOFT   0/11701
ENET.SYSOP   34334
ENET.TALKS   0/32
ENGLISH_TUTOR   0/2000
EVOLUTION   0/1335
FDECHO   0/217
FDN_ANNOUNCE   0/7068
FIDONEWS   25122
FIDONEWS_OLD1   0/49742
FIDONEWS_OLD2   0/35949
FIDONEWS_OLD3   0/30874
FIDONEWS_OLD4   0/37224
FIDO_SYSOP   12973
FIDO_UTIL   0/180
FILEFIND   0/209
FILEGATE   0/212
Möte HAM, 16715 texter
 lista första sista föregående nästa
Text 5168, 977 rader
Skriven 2012-03-28 13:31:20 av Amsat List (1:323/120.0)
Ärende: [keps] orb12088.amsa
============================
[keps] orb12088.amsa

Sender: keps-bounces@amsat.org
Return-Path: <keps-bounces@amsat.org>
X-Rcpt: craig.healy@chowda.com
X-UIDL: 1332958775.2059

SB KEPS @ AMSAT  $ORB12088.O
Orbital Elements  12088.OSCAR

HR AMSAT ORBITAL ELEMENTS FOR OSCAR SATELLITES
FROM WA5QGD FORT WORTH,TX March 28, 2012
Send SUBSCRIBE KEPS/UNSUBSCRIBE KEPS to majordomo@amsat.org only
BID: ORB12088.O
TO ALL RADIO AMATEURS BT

Satellite: AO-07
Catalog number: 07530
Epoch time:      12087.90330607
Element set:     341
Inclination:      101.4017 deg
RA of node:       088.2586 deg
Eccentricity:    0.0012110
Arg of perigee:   081.5166 deg
Mean anomaly:     278.7279 deg
Mean motion:   12.53588455 rev/day
Decay rate:       -2.7e-07 rev/day^2
Epoch rev:           70986
Checksum:              298

Satellite: FO-29
Catalog number: 24278
Epoch time:      12087.83945049
Element set:     806
Inclination:      098.5776 deg
RA of node:       199.1588 deg
Eccentricity:    0.0349759
Arg of perigee:   239.8475 deg
Mean anomaly:     116.7579 deg
Mean motion:   13.52979003 rev/day
Decay rate:        1.5e-07 rev/day^2
Epoch rev:           77095
Checksum:              386

Satellite: SO-33
Catalog number: 25509
Epoch time:      12087.37721390
Element set:    0195
Inclination:      031.4327 deg
RA of node:       076.6369 deg
Eccentricity:    0.0353023
Arg of perigee:   207.4980 deg
Mean anomaly:     150.6553 deg
Mean motion:   14.28685640 rev/day
Decay rate:        1.0e-07 rev/day^2
Epoch rev:           70094
Checksum:              296

Satellite: RS-22
Catalog number: 27939
Epoch time:      12087.73226885
Element set:    0211
Inclination:      097.8187 deg
RA of node:       292.6999 deg
Eccentricity:    0.0013721
Arg of perigee:   159.3038 deg
Mean anomaly:     200.8729 deg
Mean motion:   14.63945717 rev/day
Decay rate:       4.90e-06 rev/day^2
Epoch rev:           45396
Checksum:              351

Satellite: VO-52
Catalog number: 28650
Epoch time:      12087.60898753
Element set:    0061
Inclination:      097.6056 deg
RA of node:       122.5311 deg
Eccentricity:    0.0025651
Arg of perigee:   310.8334 deg
Mean anomaly:     049.0643 deg
Mean motion:   14.82773600 rev/day
Decay rate:      1.279e-05 rev/day^2
Epoch rev:           37288
Checksum:              308

Satellite: HO-68
Catalog number: 36122
Epoch time:      12088.34352941
Element set:     325
Inclination:      100.3701 deg
RA of node:       149.2927 deg
Eccentricity:    0.0007121
Arg of perigee:   295.3162 deg
Mean anomaly:     064.7213 deg
Mean motion:   13.16294185 rev/day
Decay rate:       -4.4e-07 rev/day^2
Epoch rev:           10975
Checksum:              278

/EX
SB KEPS @ AMSAT  $ORB12088.D
Orbital Elements  12088.MICROS

HR AMSAT ORBITAL ELEMENTS FOR THE MICROSATS
FROM WA5QGD FORT WORTH,TX March 28, 2012
Send SUBSCRIBE KEPS/UNSUBSCRIBE KEPS to majordomo@amsat.org only
BID: ORB12088.D
TO ALL RADIO AMATEURS BT

Satellite: UO-11
Catalog number: 14781
Epoch time:      12087.94539045
Element set:    0831
Inclination:      097.9644 deg
RA of node:       148.1477 deg
Eccentricity:    0.0008038
Arg of perigee:   301.6159 deg
Mean anomaly:     058.4271 deg
Mean motion:   14.80359602 rev/day
Decay rate:       6.73e-06 rev/day^2
Epoch rev:           50791
Checksum:              320

Satellite: AO-16
Catalog number: 20439
Epoch time:      12087.96800585
Element set:    0433
Inclination:      098.4223 deg
RA of node:       033.6477 deg
Eccentricity:    0.0011788
Arg of perigee:   042.6977 deg
Mean anomaly:     317.5118 deg
Mean motion:   14.32030531 rev/day
Decay rate:        9.2e-07 rev/day^2
Epoch rev:           15837
Checksum:              306

Satellite: LO-19
Catalog number: 20442
Epoch time:      12087.86365131
Element set:    0360
Inclination:      098.3884 deg
RA of node:       036.8401 deg
Eccentricity:    0.0012593
Arg of perigee:   035.4164 deg
Mean anomaly:     324.7848 deg
Mean motion:   14.32250342 rev/day
Decay rate:        8.4e-07 rev/day^2
Epoch rev:           15854
Checksum:              295

Satellite: AO-27
Catalog number: 22825
Epoch time:      12087.90970390
Element set:    0071
Inclination:      098.5682 deg
RA of node:       032.0202 deg
Eccentricity:    0.0008738
Arg of perigee:   153.4308 deg
Mean anomaly:     206.7320 deg
Mean motion:   14.29440716 rev/day
Decay rate:        4.4e-07 rev/day^2
Epoch rev:           96486
Checksum:              298

Satellite: IO-26
Catalog number: 22826
Epoch time:      12087.92609698
Element set:    0821
Inclination:      098.5617 deg
RA of node:       032.4273 deg
Eccentricity:    0.0009143
Arg of perigee:   147.1648 deg
Mean anomaly:     213.0102 deg
Mean motion:   14.29712799 rev/day
Decay rate:        8.4e-07 rev/day^2
Epoch rev:           96499
Checksum:              331

Satellite: GO-32
Catalog number: 25397
Epoch time:      12088.48142228
Element set:     736
Inclination:      098.3563 deg
RA of node:       071.1931 deg
Eccentricity:    0.0001662
Arg of perigee:   126.6667 deg
Mean anomaly:     233.4673 deg
Mean motion:   14.23264511 rev/day
Decay rate:        6.4e-07 rev/day^2
Epoch rev:           71254
Checksum:              299

Satellite: NO-44
Catalog number: 26931
Epoch time:      12087.61789096
Element set:       2
Inclination:      067.0542 deg
RA of node:       330.5693 deg
Eccentricity:    0.0006851
Arg of perigee:   276.3924 deg
Mean anomaly:     083.6400 deg
Mean motion:   14.29774999 rev/day
Decay rate:       1.41e-06 rev/day^2
Epoch rev:           54758
Checksum:              328

